COSMOS 2251 DEB, 37101

Orbit data source: Space-Track

COSMOS 2251 DEB, 37101 is space debris in LEO originally from a launch on Wed, 16 Jun 1993 UTC launched from the Plesetsk Missile And Space Complex (PKMTR). The debris from Iridium 33, an American commercial communications satellite, has been tracked extensively since its accidental collision with the defunct Russian satellite Cosmos 2251 in 2009. This event, occurring at high speed in low Earth orbit (LEO), generated thousands of pieces of space debris, significantly increasing the risk of further collisions. The Iridium 33 debris cloud has impacted space traffic management and orbital debris mitigation strategies, making it a subject of ongoing study in space situational awareness.

Loading next visibility...
Identifier
37101, 1993-036BFX
Orbit
LEO
Country
Flag of CISCIS
Related business
Manufacturer
Unknown
Mission
Spacecraft
Bus & Motor
Unknown
Mass
Unknown
Launch date (UTC)
1993-06-16 (32 years ago)
Launch vehicle
Unknown
Launch site
Plesetsk Missile And Space Complex (PKMTR)
Object type
Payload
Rocket body
Debris
Shape & HBR
Unknown shape, 0.1 m
Radar Cross Section
Small (<0.1 m²)

Expand to show TLE details & history
Last TLE update: 8 months ago

TLE from 8 months ago
0 COSMOS 2251 DEB
1 37101U 93036BFX 25069.25821473  .00008185  00000-0  16496-2 0  9997
2 37101  74.0364 265.9410 0048670  65.1080 295.5133 14.60875318616149
Epoch: 2025-03-10T06:11Z
TLE epoch observation values (Epoch: 2025-03-10T06:11:49.752Z)
Latitude
-0.00009°
Longitude
4.80558°
Altitude
678.307 km
Speed
7.526 km/s
True Right ascension
17h 43m 45s
True Declination
0° 00' 00"
Sunlit
Object was in daylight at epoch
Visualization orbit readout
Latitude
Unknown
Longitude
Unknown
Altitude
Unknown
Speed
Unknown
Apparent Right ascension
Unknown
Apparent Declination
Unknown
Sunlit
N/A
Visualization observer readout
Local Sidereal Time
18:32:33
Azimuth
Unknown
Elevation
Unknown
Doppler factor
Unknown
Orbital elements
Apogee altitude
722.336 km
Perigee altitude
653.555 km
Semi-major axis
7,066.083 km
Eccentricity
0.00487
Inclination
74.0364°
RAAN
265.941°
Arg. of periapsis
65.108°
True anomaly
295.00865°
Mean anomaly
295.5133°
Eccentric anomaly
295.26111°
Mean motion
3.65406 °/min
Orbital period
98.52 mins
BSTAR
0.0016496

Documentation

Showing up to 5 results
|